Location: ???????
(55.4362°N, 38.1183°E)
Time: 20:39:46
(UTC+00:00)

M-CUBED/EXP-1 PRIME - Pass Details

Date: 09 December 2021
Orbit: 426 x 650 km, 101.7° (Epoch: 26 January)

Event Time Altitude Azimuth Distance (km) Brightness Sun altitude
Rises 13:39:12 0° 121° (ESE) 2,876 ? -5.6°
Reaches altitude 10° 13:41:34 10° 109° (ESE) 2,003 ? -5.9°
Maximum altitude 13:45:15 28° 52° (NE) 1,222 ? -6.3°
Drops below altitude 10° 13:49:04 10° 354° (N) 2,069 ? -6.8°
Sets 13:51:33 0° 343° (NNW) 2,991 ? -7.1°
